QPF
0.01 0.01 0.01 0.01 0.01 0.01 0.02 0.02 0.03 0.02 0.02 0.02 0.03 0.04 0.03 0.02 0.02 0.02 0.02 0.03 0.04 0.04 0.04 0.06 0.11 0.19 0.22 0.17 0.08 0.04 0.04 0.06 0.06 0.15 0.30 0.27 0.19 0.13
0.00 0.01 0.02 0.01 0.01 0.02 0.01 0.02 0.02 0.02 0.02 0.02 0.02 0.04 0.05 0.03 0.01 0.02 0.02 0.02 0.03 0.03 0.03 0.03 0.05 0.08 0.12 0.12 0.09 0.06 0.04 0.04 0.04 0.10 0.23 0.24 0.17 0.09
0.01 0.01 0.01 0.01 0.01 0.02 0.02 0.02 0.02 0.02 0.01 0.01 0.01 0.03 0.06 0.04 0.03 0.03 0.01 0.02 0.03 0.02 0.02 0.02 0.03 0.04 0.06 0.07 0.07 0.05 0.03 0.03 0.03 0.05 0.12 0.14 0.12 0.11
0.01 0.01 0.01 0.01 0.01 0.01 0.02 0.02 0.01 0.01 0.01 0.01 0.00 0.01 0.01 0.02 0.02 0.03 0.03 0.01 0.02 0.02 0.02 0.02 0.02 0.02 0.02 0.02 0.03 0.03 0.04 0.07 0.05 0.03 0.05 0.05 0.06 0.09
0.00 0.00 0.01 0.00 0.01 0.01 0.01 0.01 0.01 0.00 0.01 0.01 0.01 0.01 0.00 0.00 0.01 0.03 0.04 0.03 0.02 0.02 0.03 0.02 0.01 0.01 0.01 0.01 0.01 0.01 0.03 0.09 0.09 0.04 0.03 0.03 0.03 0.06
0.00 0.00 0.00 0.00 0.00 0.01 0.01 0.01 0.01 0.00 0.00 0.00 0.01 0.01 0.01 0.00 0.01 0.02 0.03 0.04 0.04 0.02 0.02 0.03 0.02 0.01 0.01 0.01 0.01 0.02 0.02 0.05 0.11 0.11 0.06 0.03 0.02 0.04
0.00 0.00 0.00 0.00 0.00 0.01 0.01 0.01 0.01 0.01 0.00 0.00 0.00 0.00 0.00 0.00 0.01 0.01 0.01 0.01 0.01 0.01 0.01 0.01 0.02 0.02 0.01 0.00 0.01 0.03 0.03 0.03 0.08 0.13 0.14 0.07 0.04 0.03
0.00 0.00 0.01 0.00 0.00 0.00 0.01 0.01 0.01 0.01 0.01 0.01 0.01 0.01 0.01 0.01 0.01 0.01 0.00 0.00 0.00 0.00 0.01 0.01 0.01 0.01 0.01 0.01 0.00 0.00 0.01 0.01 0.05 0.11 0.16 0.14 0.09 0.05
0.00 0.01 0.01 0.00 0.00 0.01 0.01 0.00 0.00 0.00 0.00 0.01 0.01 0.01 0.01 0.01 0.01 0.01 0.01 0.00 0.00 0.00 0.00 0.01 0.01 0.01 0.01 0.01 0.00 0.00 0.00 0.00 0.03 0.11 0.14 0.18 0.15 0.11
0.00 0.00 0.00 0.00 0.00 0.01 0.01 0.00 0.00 0.00 0.00 0.00 0.00 0.00 0.00 0.00 0.01 0.01 0.01 0.00 0.00 0.00 0.00 0.01 0.01 0.01 0.01 0.00 0.00 0.00 0.00 0.00 0.01 0.07 0.14 0.16 0.19 0.15
0.00 0.00 0.00 0.01 0.01 0.01 0.01 0.00 0.00 0.00 0.00 0.00 0.00 0.00 0.00 0.00 0.00 0.00 0.00 0.00 0.01 0.01 0.01 0.01 0.02 0.01 0.01 0.00 0.00 0.00 0.00 0.00 0.00 0.03 0.13 0.17 0.18 0.17
0.00 0.00 0.00 0.01 0.01 0.01 0.01 0.01 0.00 0.00 0.00 0.00 0.00 0.00 0.00 0.00 0.00 0.00 0.00 0.00 0.01 0.01 0.01 0.01 0.01 0.03 0.02 0.01 0.00 0.00 0.00 0.00 0.00 0.01 0.07 0.18 0.18 0.14
0.00 0.00 0.00 0.01 0.01 0.01 0.01 0.01 0.00 0.00 0.00 0.00 0.00 0.00 0.00 0.00 0.00 0.00 0.00 0.00 0.01 0.01 0.01 0.01 0.01 0.02 0.03 0.02 0.01 0.00 0.00 0.00 0.00 0.01 0.04 0.13 0.18 0.13
0.00 0.00 0.00 0.01 0.01 0.01 0.01 0.00 0.00 0.00 0.00 0.00 0.00 0.00 0.00 0.00 0.00 0.00 0.00 0.00 0.00 0.01 0.01 0.01 0.00 0.01 0.02 0.02 0.01 0.00 0.00 0.00 0.00 0.00 0.02 0.07 0.14 0.11
0.00 0.00 0.00 0.00 0.00 0.00 0.01 0.00 0.00 0.00 0.00 0.00 0.00 0.00 0.00 0.00 0.00 0.00 0.00 0.00 0.00 0.00 0.01 0.00 0.00 0.00 0.01 0.02 0.02 0.01 0.00 0.00 0.00 0.00 0.01 0.04 0.08 0.09
0.00 0.00 0.00 0.00 0.00 0.00 0.00 0.01 0.00 0.00 0.00 0.00 0.00 0.00 0.00 0.00 0.00 0.00 0.00 0.00 0.00 0.00 0.00 0.01 0.00 0.00 0.00 0.01 0.01 0.01 0.01 0.00 0.00 0.00 0.01 0.03 0.05 0.07
0.00 0.00 0.00 0.00 0.00 0.00 0.01 0.00 0.00 0.00 0.00 0.00 0.00 0.00 0.00 0.00 0.00 0.00 0.00 0.00 0.00 0.00 0.00 0.00 0.00 0.00 0.00 0.01 0.01 0.01 0.01 0.01 0.00 0.00 0.00 0.01 0.03 0.05
0.00 0.00 0.00 0.00 0.00 0.00 0.00 0.00 0.00 0.00 0.00 0.00 0.00 0.00 0.00 0.00 0.00 0.00 0.00 0.00 0.00 0.00 0.00 0.00 0.00 0.00 0.00 0.00 0.00 0.00 0.01 0.01 0.00 0.00 0.00 0.00 0.01 0.03
0.00 0.00 0.00 0.00 0.00 0.00 0.00 0.00 0.00 0.00 0.00 0.00 0.00 0.00 0.00 0.00 0.00 0.00 0.00 0.00 0.00 0.00 0.00 0.00 0.00 0.01 0.01 0.01 0.01 0.00 0.01 0.01 0.01 0.00 0.00 0.00 0.00 0.01
0.00 0.00 0.00 0.00 0.00 0.00 0.00 0.00 0.00 0.00 0.00 0.00 0.00 0.00 0.00 0.00 0.00 0.00 0.00 0.01 0.01 0.00 0.00 0.00 0.00 0.01 0.01 0.02 0.02 0.01 0.00 0.01 0.01 0.01 0.00 0.00 0.00 0.01
0.00 0.00 0.00 0.00 0.00 0.00 0.00 0.00 0.00 0.00 0.00 0.00 0.00 0.00 0.00 0.00 0.00 0.01 0.01 0.01 0.01 0.01 0.01 0.00 0.01 0.01 0.01 0.02 0.02 0.01 0.00 0.00 0.01 0.01 0.00 0.00 0.01 0.01
0.00 0.00 0.00 0.00 0.00 0.00 0.00 0.00 0.00 0.00 0.00 0.00 0.00 0.00 0.00 0.00 0.01 0.01 0.01 0.01 0.01 0.00 0.00 0.00 0.00 0.01 0.01 0.01 0.01 0.01 0.01 0.01 0.01 0.01 0.01 0.01 0.01 0.01
0.00 0.00 0.00 0.00 0.00 0.00 0.00 0.00 0.00 0.00 0.00 0.00 0.00 0.00 0.00 0.00 0.01 0.01 0.01 0.01 0.00 0.00 0.00 0.00 0.00 0.00 0.01 0.01 0.01 0.01 0.01 0.01 0.01 0.01 0.01 0.01 0.01 0.01
MSLP
1018.47 1018.46 1018.54 1018.70 1018.94 1019.22 1019.55 1019.88 1020.20 1020.49 1020.74 1020.94 1021.09 1021.20 1021.27 1021.29 1021.28 1021.22 1021.13 1021.01 1020.85 1020.66 1020.47 1020.26 1020.07 1019.91 1019.79 1019.72 1019.71 1019.76 1019.88 1020.06 1020.28 1020.54 1020.84 1021.14 1021.44 1021.73
1018.98 1018.94 1018.96 1019.04 1019.19 1019.40 1019.65 1019.93 1020.22 1020.50 1020.76 1020.99 1021.18 1021.33 1021.44 1021.50 1021.53 1021.52 1021.47 1021.40 1021.30 1021.18 1021.06 1020.93 1020.81 1020.71 1020.64 1020.59 1020.59 1020.63 1020.71 1020.83 1020.98 1021.16 1021.36 1021.56 1021.78 1021.98
1019.48 1019.44 1019.43 1019.47 1019.55 1019.69 1019.88 1020.11 1020.36 1020.62 1020.88 1021.12 1021.33 1021.51 1021.64 1021.74 1021.79 1021.80 1021.79 1021.75 1021.69 1021.62 1021.55 1021.48 1021.42 1021.37 1021.35 1021.34 1021.35 1021.39 1021.45 1021.53 1021.62 1021.73 1021.85 1021.98 1022.11 1022.23
1019.93 1019.91 1019.89 1019.90 1019.95 1020.04 1020.18 1020.37 1020.58 1020.82 1021.06 1021.30 1021.52 1021.71 1021.86 1021.97 1022.04 1022.07 1022.07 1022.05 1022.02 1021.97 1021.94 1021.90 1021.88 1021.88 1021.89 1021.91 1021.95 1021.99 1022.05 1022.10 1022.16 1022.23 1022.29 1022.35 1022.42 1022.48
1020.27 1020.28 1020.28 1020.29 1020.32 1020.39 1020.49 1020.64 1020.82 1021.03 1021.25 1021.48 1021.69 1021.88 1022.04 1022.16 1022.24 1022.28 1022.29 1022.28 1022.25 1022.22 1022.20 1022.18 1022.18 1022.20 1022.23 1022.28 1022.33 1022.39 1022.45 1022.51 1022.56 1022.60 1022.63 1022.66 1022.68 1022.70
1020.49 1020.53 1020.55 1020.57 1020.61 1020.66 1020.74 1020.86 1021.01 1021.19 1021.39 1021.59 1021.79 1021.98 1022.13 1022.26 1022.34 1022.39 1022.41 1022.40 1022.37 1022.34 1022.31 1022.29 1022.29 1022.31 1022.35 1022.41 1022.48 1022.56 1022.64 1022.71 1022.77 1022.81 1022.84 1022.86 1022.87 1022.88
1020.55 1020.62 1020.67 1020.72 1020.76 1020.82 1020.89 1020.98 1021.11 1021.25 1021.42 1021.59 1021.77 1021.94 1022.09 1022.22 1022.31 1022.36 1022.39 1022.38 1022.35 1022.31 1022.26 1022.23 1022.21 1022.22 1022.25 1022.31 1022.39 1022.49 1022.59 1022.69 1022.77 1022.85 1022.90 1022.94 1022.96 1022.97
1020.47 1020.56 1020.64 1020.71 1020.77 1020.83 1020.90 1020.98 1021.08 1021.19 1021.32 1021.46 1021.61 1021.76 1021.90 1022.02 1022.12 1022.18 1022.21 1022.21 1022.17 1022.12 1022.06 1022.00 1021.95 1021.94 1021.95 1022.00 1022.08 1022.19 1022.32 1022.45 1022.58 1022.69 1022.78 1022.85 1022.90 1022.93
1020.25 1020.37 1020.47 1020.57 1020.65 1020.73 1020.80 1020.87 1020.94 1021.01 1021.10 1021.21 1021.32 1021.45 1021.57 1021.69 1021.79 1021.87 1021.90 1021.90 1021.87 1021.80 1021.72 1021.63 1021.55 1021.50 1021.49 1021.52 1021.60 1021.72 1021.86 1022.03 1022.19 1022.35 1022.49 1022.59 1022.67 1022.72
1019.95 1020.08 1020.21 1020.33 1020.44 1020.53 1020.61 1020.67 1020.72 1020.76 1020.81 1020.87 1020.95 1021.04 1021.15 1021.26 1021.36 1021.44 1021.49 1021.50 1021.46 1021.38 1021.28 1021.16 1021.06 1020.97 1020.93 1020.93 1021.00 1021.11 1021.27 1021.45 1021.65 1021.83 1022.00 1022.14 1022.24 1022.31
1019.61 1019.75 1019.90 1020.04 1020.18 1020.29 1020.37 1020.42 1020.45 1020.46 1020.47 1020.49 1020.53 1020.59 1020.68 1020.78 1020.87 1020.96 1021.01 1021.02 1020.99 1020.91 1020.79 1020.65 1020.51 1020.39 1020.31 1020.29 1020.33 1020.43 1020.58 1020.76 1020.96 1021.16 1021.34 1021.49 1021.60 1021.66
1019.30 1019.43 1019.59 1019.76 1019.91 1020.03 1020.12 1020.16 1020.17 1020.15 1020.13 1020.10 1020.10 1020.13 1020.18 1020.26 1020.35 1020.44 1020.50 1020.51 1020.48 1020.39 1020.26 1020.11 1019.94 1019.79 1019.68 1019.62 1019.63 1019.70 1019.82 1019.99 1020.17 1020.36 1020.52 1020.65 1020.74 1020.78
1019.05 1019.17 1019.33 1019.49 1019.65 1019.78 1019.86 1019.89 1019.88 1019.83 1019.76 1019.70 1019.66 1019.65 1019.67 1019.73 1019.81 1019.88 1019.94 1019.96 1019.93 1019.84 1019.71 1019.54 1019.35 1019.18 1019.03 1018.94 1018.91 1018.93 1019.02 1019.14 1019.28 1019.42 1019.55 1019.63 1019.68 1019.68
1018.90 1018.99 1019.12 1019.26 1019.40 1019.51 1019.58 1019.59 1019.55 1019.47 1019.37 1019.27 1019.18 1019.14 1019.13 1019.16 1019.21 1019.27 1019.32 1019.34 1019.31 1019.23 1019.09 1018.92 1018.72 1018.53 1018.36 1018.23 1018.15 1018.13 1018.16 1018.22 1018.30 1018.37 1018.43 1018.46 1018.44 1018.39
1018.85 1018.88 1018.96 1019.06 1019.16 1019.24 1019.27 1019.25 1019.17 1019.06 1018.92 1018.78 1018.65 1018.57 1018.52 1018.52 1018.54 1018.59 1018.62 1018.63 1018.60 1018.52 1018.39 1018.22 1018.02 1017.81 1017.62 1017.46 1017.34 1017.27 1017.23 1017.22 1017.22 1017.22 1017.20 1017.15 1017.07 1016.97
1018.90 1018.85 1018.86 1018.89 1018.93 1018.95 1018.93 1018.86 1018.75 1018.59 1018.41 1018.23 1018.07 1017.94 1017.85 1017.81 1017.80 1017.81 1017.83 1017.82 1017.79 1017.70 1017.58 1017.41 1017.21 1017.01 1016.80 1016.62 1016.46 1016.33 1016.23 1016.15 1016.07 1015.99 1015.89 1015.77 1015.63 1015.47
1019.04 1018.90 1018.82 1018.76 1018.72 1018.67 1018.59 1018.47 1018.30 1018.10 1017.88 1017.66 1017.45 1017.28 1017.15 1017.06 1017.00 1016.98 1016.96 1016.93 1016.88 1016.80 1016.67 1016.51 1016.32 1016.11 1015.90 1015.69 1015.50 1015.33 1015.18 1015.03 1014.88 1014.72 1014.55 1014.37 1014.17 1013.98
1019.25 1019.02 1018.85 1018.70 1018.58 1018.45 1018.31 1018.13 1017.91 1017.67 1017.41 1017.14 1016.89 1016.67 1016.48 1016.34 1016.23 1016.15 1016.09 1016.03 1015.95 1015.85 1015.71 1015.55 1015.36 1015.16 1014.94 1014.73 1014.51 1014.30 1014.10 1013.89 1013.68 1013.46 1013.23 1013.00 1012.77 1012.56
1019.55 1019.24 1018.98 1018.76 1018.56 1018.37 1018.16 1017.93 1017.67 1017.39 1017.09 1016.78 1016.48 1016.21 1015.96 1015.75 1015.58 1015.44 1015.31 1015.20 1015.08 1014.95 1014.79 1014.62 1014.43 1014.22 1014.00 1013.77 1013.54 1013.30 1013.05 1012.80 1012.54 1012.27 1011.99 1011.72 1011.47 1011.25
1019.93 1019.57 1019.25 1018.97 1018.72 1018.47 1018.22 1017.95 1017.66 1017.35 1017.01 1016.67 1016.32 1015.99 1015.68 1015.40 1015.15 1014.92 1014.72 1014.54 1014.36 1014.19 1014.00 1013.80 1013.60 1013.38 1013.14 1012.90 1012.64 1012.37 1012.09 1011.80 1011.50 1011.18 1010.87 1010.58 1010.31 1010.08
1020.40 1020.02 1019.67 1019.36 1019.08 1018.80 1018.53 1018.24 1017.92 1017.58 1017.22 1016.84 1016.45 1016.06 1015.68 1015.32 1014.99 1014.68 1014.39 1014.12 1013.87 1013.63 1013.40 1013.16 1012.93 1012.68 1012.42 1012.16 1011.87 1011.57 1011.26 1010.93 1010.58 1010.24 1009.90 1009.57 1009.28 1009.04
1020.95 1020.57 1020.23 1019.92 1019.63 1019.34 1019.06 1018.76 1018.43 1018.08 1017.70 1017.28 1016.85 1016.41 1015.96 1015.52 1015.10 1014.70 1014.32 1013.96 1013.63 1013.31 1013.02 1012.73 1012.45 1012.16 1011.87 1011.57 1011.25 1010.92 1010.56 1010.19 1009.81 1009.42 1009.05 1008.70 1008.38 1008.12
1021.54 1021.19 1020.87 1020.57 1020.29 1020.01 1019.73 1019.43 1019.10 1018.74 1018.34 1017.90 1017.43 1016.94 1016.43 1015.92 1015.41 1014.92 1014.45 1014.00 1013.58 1013.19 1012.83 1012.48 1012.14 1011.81 1011.47 1011.12 1010.76 1010.38 1009.99 1009.57 1009.15 1008.72 1008.31 1007.92 1007.58 1007.29
Thickness
5695 5694 5694 5693 5693 5693 5693 5693 5690 5687 5685 5683 5682 5682 5682 5682 5681 5684 5684 5683 5685 5687 5689 5691 5693 5695 5696 5697 5699 5700 5701 5702 5704 5705 5706 5707 5709 5712
5689 5690 5690 5691 5690 5689 5690 5690 5690 5688 5683 5681 5680 5679 5678 5679 5678 5679 5680 5680 5680 5682 5683 5684 5686 5688 5689 5690 5690 5692 5693 5694 5696 5698 5699 5700 5702 5706
5688 5687 5686 5686 5686 5686 5686 5686 5685 5685 5680 5678 5678 5677 5676 5675 5675 5675 5676 5677 5677 5676 5677 5678 5679 5680 5681 5682 5683 5684 5685 5686 5688 5689 5691 5692 5694 5696
5684 5684 5684 5682 5682 5682 5681 5681 5680 5680 5678 5673 5674 5673 5672 5671 5670 5671 5672 5673 5672 5671 5671 5672 5672 5673 5674 5674 5675 5676 5676 5677 5679 5681 5682 5684 5685 5686
5682 5681 5681 5681 5679 5678 5677 5677 5676 5675 5673 5671 5669 5667 5668 5667 5666 5667 5667 5666 5667 5667 5667 5666 5666 5666 5667 5667 5667 5668 5668 5669 5670 5672 5673 5674 5676 5677
5678 5677 5677 5677 5676 5675 5673 5672 5671 5669 5668 5667 5665 5664 5662 5661 5661 5661 5661 5662 5661 5661 5661 5661 5661 5661 5661 5660 5660 5660 5660 5661 5662 5663 5664 5665 5666 5667
5674 5673 5671 5668 5666 5667 5667 5667 5665 5664 5663 5661 5660 5659 5657 5655 5655 5655 5655 5656 5656 5654 5655 5656 5656 5657 5656 5654 5652 5652 5652 5653 5653 5654 5655 5656 5657 5658
5670 5669 5667 5664 5661 5659 5657 5657 5657 5658 5658 5656 5655 5653 5652 5650 5648 5648 5649 5649 5648 5648 5647 5649 5649 5650 5648 5646 5644 5643 5644 5644 5645 5645 5646 5647 5647 5648
5666 5665 5662 5659 5657 5657 5653 5651 5650 5648 5648 5650 5649 5648 5646 5645 5643 5642 5642 5641 5640 5640 5639 5641 5642 5642 5640 5638 5636 5635 5635 5635 5635 5636 5636 5637 5638 5639
5660 5659 5658 5655 5652 5652 5651 5649 5648 5645 5643 5643 5642 5640 5638 5636 5635 5634 5634 5634 5634 5632 5631 5633 5635 5635 5634 5632 5628 5627 5626 5626 5626 5626 5626 5627 5628 5629
5653 5652 5651 5649 5643 5642 5644 5643 5642 5639 5635 5632 5630 5629 5627 5626 5625 5626 5626 5627 5627 5627 5624 5623 5625 5626 5626 5625 5622 5619 5618 5617 5617 5617 5617 5618 5619 5620
5647 5645 5641 5640 5636 5635 5638 5637 5635 5633 5631 5629 5626 5623 5622 5620 5617 5617 5618 5618 5618 5618 5615 5613 5614 5614 5617 5618 5614 5612 5611 5610 5609 5609 5609 5608 5608 5610
5641 5639 5636 5631 5629 5627 5628 5628 5625 5623 5623 5622 5620 5618 5616 5614 5611 5609 5608 5606 5606 5606 5604 5602 5603 5602 5602 5605 5605 5603 5601 5601 5601 5601 5600 5599 5598 5598
5634 5632 5628 5623 5621 5619 5619 5616 5614 5613 5615 5614 5612 5609 5607 5605 5602 5600 5598 5596 5595 5594 5593 5591 5591 5589 5590 5592 5594 5594 5592 5591 5590 5590 5590 5589 5589 5588
5626 5622 5619 5615 5613 5612 5610 5608 5606 5607 5606 5605 5603 5600 5597 5595 5592 5590 5589 5588 5587 5585 5583 5581 5580 5580 5579 5580 5581 5581 5581 5581 5579 5578 5578 5578 5578 5577
5617 5613 5610 5608 5606 5604 5602 5602 5600 5598 5597 5595 5593 5591 5588 5585 5583 5581 5580 5579 5579 5579 5576 5573 5570 5569 5569 5569 5569 5570 5569 5568 5567 5565 5564 5564 5564 5563
5610 5608 5606 5604 5602 5600 5598 5595 5592 5590 5588 5585 5583 5581 5579 5576 5574 5572 5570 5570 5570 5569 5568 5565 5562 5560 5558 5557 5558 5558 5557 5556 5554 5553 5552 5553 5553 5551
5601 5601 5599 5597 5595 5592 5590 5587 5584 5581 5578 5576 5573 5571 5569 5567 5566 5564 5562 5560 5559 5558 5556 5554 5552 5551 5552 5551 5545 5545 5545 5543 5542 5540 5538 5540 5542 5540
5594 5594 5592 5589 5586 5583 5581 5578 5575 5572 5568 5565 5563 5562 5560 5558 5556 5554 5552 5550 5548 5546 5544 5541 5539 5537 5538 5542 5541 5531 5530 5530 5529 5528 5527 5526 5527 5527
5587 5586 5583 5580 5577 5574 5571 5568 5565 5562 5559 5556 5554 5552 5549 5547 5545 5542 5540 5538 5536 5534 5532 5529 5526 5523 5522 5523 5525 5523 5517 5515 5515 5515 5514 5513 5513 5511
5578 5576 5573 5570 5567 5563 5560 5557 5554 5551 5548 5546 5543 5540 5538 5535 5533 5530 5528 5524 5521 5520 5519 5517 5513 5507 5506 5507 5509 5512 5508 5503 5500 5498 5498 5498 5499 5500
5569 5566 5563 5559 5556 5553 5549 5546 5543 5541 5537 5534 5532 5528 5526 5523 5520 5517 5515 5512 5510 5508 5506 5503 5500 5497 5495 5494 5496 5498 5497 5494 5490 5486 5483 5481 5480 5484
5560 5556 5552 5549 5545 5542 5538 5536 5533 5530 5526 5522 5519 5516 5513 5510 5507 5504 5502 5499 5498 5496 5493 5491 5488 5485 5483 5481 5482 5483 5483 5482 5480 5479 5478 5473 5469 5466